This is the latest recevied weather packets stored in our database for station/object IZ1UQG-N2. If no packets are shown the sender has not sent any weather packets the latest 10 day(s).
| Time | Temp. | Humidity | Pressure | Rain* | Wind** | Luminosity | Snow |
|---|---|---|---|---|---|---|---|
| 1787880362 | 22.78° C | 89% | 1015.4 hPa | 8.64 mm | - | 0 W/m² | - |
| 1787880304 | 22.78° C | 89% | 1015.4 hPa | 8.38 mm | - | 0 W/m² | - |
| 1787880242 | 22.22° C | 89% | 1015.4 hPa | 8.38 mm | - | 0 W/m² | - |
| 1787880182 | 22.22° C | 89% | 1015.3 hPa | 8.38 mm | - | 0 W/m² | - |
| 1787880124 | 22.22° C | 89% | 1015.2 hPa | 8.38 mm | - | 0 W/m² | - |
| 1787880064 | 22.22° C | 89% | 1015 hPa | 8.38 mm | - | 0 W/m² | - |
| 1787880004 | 22.22° C | 89% | 1015 hPa | 8.38 mm | - | 0 W/m² | - |
| 1787879943 | 22.22° C | 89% | 1015.1 hPa | 8.38 mm | - | 0 W/m² | - |
| 1787879883 | 22.22° C | 89% | 1015 hPa | 8.38 mm | - | 0 W/m² | - |
| 1787879822 | 22.22° C | 89% | 1014.9 hPa | 8.38 mm | - | 0 W/m² | - |
| 1787879762 | 22.22° C | 89% | 1014.7 hPa | 7.87 mm | - | 0 W/m² | - |
| 1787879704 | 22.22° C | 89% | 1014.7 hPa | 7.87 mm | - | 0 W/m² | - |
| 1787879643 | 22.22° C | 89% | 1014.5 hPa | 7.37 mm | - | 0 W/m² | - |
| 1787879583 | 22.78° C | 89% | 1014.7 hPa | 6.6 mm | - | 0 W/m² | - |
| 1787879523 | 22.78° C | 89% | 1014.8 hPa | 5.59 mm | - | 0 W/m² | - |
| 1787879462 | 22.78° C | 89% | 1014.9 hPa | 3.81 mm | - | 0 W/m² | - |
| 1787879402 | 22.78° C | 89% | 1015.1 hPa | 3.05 mm | - | 0 W/m² | - |
| 1787879343 | 22.78° C | 89% | 1015.1 hPa | 2.79 mm | - | 0 W/m² | - |
| 1787879282 | 22.78° C | 89% | 1015.1 hPa | 1.78 mm | - | 0 W/m² | - |
| 1787879224 | 22.78° C | 89% | 1015.2 hPa | 1.27 mm | - | 0 W/m² | - |
| 1787879164 | 22.78° C | 88% | 1015.4 hPa | 1.02 mm | - | 0 W/m² | - |
| 1787879103 | 22.78° C | 88% | 1015.6 hPa | 0.76 mm | - | 0 W/m² | - |
| 1787879043 | 22.78° C | 88% | 1015.6 hPa | 0.25 mm | - | 0 W/m² | - |
| 1787878983 | 22.78° C | 88% | 1015.7 hPa | 0 mm | - | 0 W/m² | - |
| 1787878923 | 22.78° C | 88% | 1015.6 hPa | 0 mm | - | 0 W/m² | - |
* Rain latest hour (hover to see other rain measurements)
** Current wind speed in m/s (hover to see current wind gust speed)